Location: Aydie
(43.5695°N, 0.1043°W)
Time: 13:33:39
(UTC+00:00)

Cosmos 2344 - Pass Details

Date: 17 November 2025
Orbit: 1197 x 3045 km, 63.3° (Epoch: 06 December)

Event Time Altitude Azimuth Distance (km) Brightness Sun altitude
Rises 18:33:03 0° 323° (NW) 4,206 6.7 -21.6°
Reaches altitude 10° 18:35:40 10° 328° (NNW) 3,326 6.1 -22.0°
Maximum altitude 18:43:29 55° 46° (NE) 1,809 4.0 -23.4°
Enters shadow 18:47:32 36° 104° (ESE) 2,491 4.6 -24.2°
